Time,TemperatureF,DewpointF,PressureIn,WindDirection,WindDirectionDegrees,WindSpeedMPH,WindSpeedGustMPH,Humidity,HourlyPrecipIn,Conditions,Clouds,dailyrainin,SoftwareType,DateUTC
2013-02-26 00:00:00,55.0,53.0,29.34,SE,140,1.0,8.0,93,0.12,,-RA,0.70,VWS V14.01,2013-02-26 06:00:00,
2013-02-26 00:05:00,54.9,52.6,29.34,ESE,107,4.0,6.0,92,0.11,,-RA,0.00,VWS V14.01,2013-02-26 06:05:00,
2013-02-26 00:10:00,54.8,52.8,29.37,SE,138,2.0,8.0,93,0.11,,-RA,0.00,VWS V14.01,2013-02-26 06:10:00,
2013-02-26 00:15:00,54.8,52.5,29.36,SE,126,8.0,8.0,92,0.10,,-RA,0.00,VWS V14.01,2013-02-26 06:15:00,
2013-02-26 00:20:00,54.7,52.4,29.35,SE,130,0.0,10.0,92,0.09,,-RA,0.00,VWS V14.01,2013-02-26 06:20:00,
2013-02-26 00:25:00,54.6,52.3,29.35,SSE,154,3.0,9.0,92,0.07,,-RA,0.00,VWS V14.01,2013-02-26 06:25:00,
2013-02-26 00:30:00,54.5,51.9,29.35,WSW,245,0.0,6.0,91,0.06,,-RA,0.00,VWS V14.01,2013-02-26 06:30:00,
2013-02-26 00:35:00,54.4,51.8,29.36,SW,215,3.0,8.0,91,0.05,,-RA,0.00,VWS V14.01,2013-02-26 06:35:00,
2013-02-26 00:40:00,54.4,51.8,29.36,South,174,2.0,8.0,91,0.04,,-RA,0.00,VWS V14.01,2013-02-26 06:40:00,
2013-02-26 00:45:00,54.4,51.8,29.36,SSW,192,3.0,5.0,91,0.04,,-RA,0.00,VWS V14.01,2013-02-26 06:45:00,
2013-02-26 00:50:00,54.4,51.8,29.35,South,178,3.0,9.0,91,0.03,,-RA,0.00,VWS V14.01,2013-02-26 06:50:00,
2013-02-26 00:55:00,54.4,51.5,29.36,SSE,158,6.0,9.0,90,0.01,,-RA,0.00,VWS V14.01,2013-02-26 06:55:00,
2013-02-26 01:00:00,54.2,51.3,29.36,South,180,2.0,7.0,90,0.01,,-RA,0.00,VWS V14.01,2013-02-26 07:00:00,
2013-02-26 01:05:00,54.2,51.3,29.36,SSW,202,0.0,5.0,90,0.00,,OVC110,0.00,VWS V14.01,2013-02-26 07:05:00,
2013-02-26 01:10:00,54.1,51.2,29.36,SSW,195,6.0,6.0,90,0.00,,OVC110,0.00,VWS V14.01,2013-02-26 07:10:00,
2013-02-26 01:15:00,54.0,51.1,29.36,SW,218,4.0,7.0,90,0.00,,OVC110,0.00,VWS V14.01,2013-02-26 07:15:00,
2013-02-26 01:20:00,54.0,51.1,29.36,SW,217,4.0,6.0,90,0.00,,OVC110,0.00,VWS V14.01,2013-02-26 07:20:00,
2013-02-26 01:25:00,54.0,51.1,29.37,SSW,198,2.0,7.0,90,0.00,,OVC110,0.00,VWS V14.01,2013-02-26 07:25:00,
2013-02-26 01:30:00,54.0,51.1,29.37,WSW,252,4.0,7.0,90,0.00,,OVC110,0.00,VWS V14.01,2013-02-26 07:30:00,
2013-02-26 01:35:00,53.8,50.9,29.37,South,175,3.0,7.0,90,0.00,,OVC110,0.00,VWS V14.01,2013-02-26 07:35:00,
2013-02-26 01:40:00,53.7,50.8,29.37,WSW,241,0.0,7.0,90,0.00,,OVC110,0.00,VWS V14.01,2013-02-26 07:40:00,
2013-02-26 01:45:00,53.5,50.6,29.37,South,175,2.0,6.0,90,0.00,,OVC110,0.00,VWS V14.01,2013-02-26 07:45:00,
2013-02-26 01:50:00,53.4,50.5,29.37,South,181,3.0,7.0,90,0.00,,OVC110,0.00,VWS V14.01,2013-02-26 07:50:00,
2013-02-26 01:55:00,53.3,50.7,29.37,SW,233,0.0,7.0,91,0.00,,OVC110,0.00,VWS V14.01,2013-02-26 07:55:00,
2013-02-26 02:00:00,53.2,50.7,29.37,SSW,198,1.0,6.0,91,0.00,,OVC110,0.00,VWS V14.01,2013-02-26 08:00:00,
2013-02-26 03:27:00,50.6,47.5,29.39,SW,234,1.0,4.0,89,0.00,,OVC110,0.00,VWS V14.01,2013-02-26 09:27:00,
2013-02-26 03:32:00,50.4,47.3,29.39,WNW,302,3.0,4.0,89,0.00,,OVC110,0.00,VWS V14.01,2013-02-26 09:32:00,
2013-02-26 03:37:00,50.2,46.8,29.39,SW,215,3.0,8.0,88,0.00,,OVC110,0.00,VWS V14.01,2013-02-26 09:37:00,
2013-02-26 03:42:00,49.9,46.5,29.40,WSW,240,1.0,5.0,88,0.00,,OVC110,0.00,VWS V14.01,2013-02-26 09:42:00,
2013-02-26 03:47:00,49.6,46.2,29.40,SW,236,0.0,4.0,88,0.00,,OVC110,0.00,VWS V14.01,2013-02-26 09:47:00,
2013-02-26 03:52:00,49.4,46.0,29.40,South,182,5.0,7.0,88,0.00,,OVC110,0.00,VWS V14.01,2013-02-26 09:52:00,
2013-02-26 03:57:00,49.3,46.2,29.40,WSW,252,1.0,6.0,89,0.00,,OVC110,0.00,VWS V14.01,2013-02-26 09:57:00,
2013-02-26 04:02:00,49.2,45.8,29.40,SSW,211,6.0,12.0,88,0.00,,OVC110,0.00,VWS V14.01,2013-02-26 10:02:00,
2013-02-26 04:07:00,49.1,45.4,29.40,WSW,248,2.0,9.0,87,0.00,,OVC022,0.00,VWS V14.01,2013-02-26 10:07:00,
2013-02-26 04:12:00,49.1,45.4,29.40,NNW,329,3.0,11.0,87,0.00,,OVC022,0.00,VWS V14.01,2013-02-26 10:12:00,
2013-02-26 04:17:00,49.0,45.3,29.40,SSW,200,3.0,4.0,87,0.00,,OVC022,0.00,VWS V14.01,2013-02-26 10:17:00,
2013-02-26 04:22:00,49.0,45.3,29.40,SSW,211,4.0,5.0,87,0.00,,OVC022,0.00,VWS V14.01,2013-02-26 10:22:00,
2013-02-26 04:27:00,48.9,45.2,29.39,WSW,242,3.0,4.0,87,0.00,,OVC022,0.00,VWS V14.01,2013-02-26 10:27:00,
2013-02-26 04:32:00,48.6,44.9,29.40,SW,223,2.0,4.0,87,0.00,,OVC022,0.00,VWS V14.01,2013-02-26 10:32:00,
2013-02-26 04:37:00,48.6,45.2,29.40,West,281,2.0,4.0,88,0.00,,OVC022,0.00,VWS V14.01,2013-02-26 10:37:00,
2013-02-26 04:42:00,48.5,45.1,29.40,SSW,193,6.0,6.0,88,0.00,,OVC022,0.00,VWS V14.01,2013-02-26 10:42:00,
2013-02-26 04:47:00,48.3,44.9,29.40,WSW,241,2.0,6.0,88,0.00,,OVC022,0.00,VWS V14.01,2013-02-26 10:47:00,
2013-02-26 04:52:00,48.1,44.7,29.40,SW,232,1.0,6.0,88,0.00,,OVC022,0.00,VWS V14.01,2013-02-26 10:52:00,
2013-02-26 04:57:00,48.1,44.7,29.40,WSW,256,3.0,8.0,88,0.00,,OVC022,0.00,VWS V14.01,2013-02-26 10:57:00,
2013-02-26 05:02:00,48.1,44.7,29.40,WSW,248,1.0,6.0,88,0.00,,OVC022,0.00,VWS V14.01,2013-02-26 11:02:00,
2013-02-26 05:07:00,48.2,44.8,29.40,WSW,252,5.0,8.0,88,0.00,,BKN028,0.00,VWS V14.01,2013-02-26 11:07:00,
2013-02-26 05:12:00,48.3,44.9,29.40,SW,230,7.0,7.0,88,0.00,,BKN028,0.00,VWS V14.01,2013-02-26 11:12:00,
2013-02-26 05:17:00,48.2,44.8,29.40,SW,219,9.0,11.0,88,0.00,,BKN028,0.00,VWS V14.01,2013-02-26 11:17:00,
2013-02-26 05:22:00,48.1,44.7,29.40,SSW,213,5.0,7.0,88,0.00,,BKN028,0.00,VWS V14.01,2013-02-26 11:22:00,
2013-02-26 05:27:00,48.0,44.3,29.41,WSW,238,6.0,9.0,87,0.00,,BKN028,0.00,VWS V14.01,2013-02-26 11:27:00,
2013-02-26 05:32:00,47.9,44.2,29.41,WSW,257,4.0,10.0,87,0.00,,BKN028,0.00,VWS V14.01,2013-02-26 11:32:00,
2013-02-26 05:37:00,47.9,44.2,29.41,SW,232,2.0,3.0,87,0.00,,BKN028,0.00,VWS V14.01,2013-02-26 11:37:00,
2013-02-26 05:42:00,47.8,43.8,29.42,WSW,247,2.0,10.0,86,0.00,,BKN028,0.00,VWS V14.01,2013-02-26 11:42:00,
2013-02-26 05:47:00,47.7,43.4,29.42,West,271,3.0,15.0,85,0.00,,BKN028,0.00,VWS V14.01,2013-02-26 11:47:00,
2013-02-26 05:52:00,47.4,42.8,29.42,West,269,6.0,6.0,84,0.00,,BKN028,0.00,VWS V14.01,2013-02-26 11:52:00,
2013-02-26 05:57:00,46.9,42.3,29.42,SW,221,0.0,4.0,84,0.00,,BKN028,0.00,VWS V14.01,2013-02-26 11:57:00,
2013-02-26 06:02:00,46.6,42.0,29.43,SW,232,4.0,9.0,84,0.00,,BKN028,0.00,VWS V14.01,2013-02-26 12:02:00,
2013-02-26 06:07:00,46.4,41.8,29.43,NW,308,8.0,8.0,84,0.00,,OVC025,0.00,VWS V14.01,2013-02-26 12:07:00,
2013-02-26 06:12:00,46.2,41.6,29.43,SW,221,6.0,9.0,84,0.00,,OVC025,0.00,VWS V14.01,2013-02-26 12:12:00,
2013-02-26 06:17:00,46.1,41.8,29.43,WSW,253,6.0,6.0,85,0.00,,OVC025,0.00,VWS V14.01,2013-02-26 12:17:00,
2013-02-26 06:22:00,46.0,41.8,29.43,West,270,1.0,10.0,85,0.00,,OVC025,0.00,VWS V14.01,2013-02-26 12:22:00,
2013-02-26 06:27:00,46.0,41.8,29.43,NW,305,2.0,7.0,85,0.00,,OVC025,0.00,VWS V14.01,2013-02-26 12:27:00,
2013-02-26 06:32:00,46.0,41.8,29.43,WSW,254,3.0,9.0,85,0.00,,OVC025,0.00,VWS V14.01,2013-02-26 12:32:00,
2013-02-26 06:37:00,46.0,41.4,29.43,WNW,290,2.0,7.0,84,0.00,,OVC025,0.00,VWS V14.01,2013-02-26 12:37:00,
2013-02-26 06:42:00,45.9,41.3,29.44,SW,219,1.0,4.0,84,0.00,,OVC025,0.00,VWS V14.01,2013-02-26 12:42:00,
2013-02-26 06:47:00,45.9,41.3,29.44,SW,234,0.0,2.0,84,0.00,,OVC025,0.00,VWS V14.01,2013-02-26 12:47:00,
2013-02-26 06:52:00,45.8,41.2,29.44,SW,217,3.0,4.0,84,0.00,,OVC025,0.00,VWS V14.01,2013-02-26 12:52:00,
2013-02-26 06:57:00,45.8,41.2,29.44,SSW,207,7.0,7.0,84,0.00,,OVC025,0.00,VWS V14.01,2013-02-26 12:57:00,
2013-02-26 07:02:00,45.7,41.2,29.44,WSW,251,5.0,10.0,84,0.00,,OVC025,0.00,VWS V14.01,2013-02-26 13:02:00,
2013-02-26 07:07:00,45.6,41.0,29.44,NW,307,2.0,4.0,84,0.00,,OVC019,0.00,VWS V14.01,2013-02-26 13:07:00,
2013-02-26 07:12:00,45.5,41.0,29.45,SW,227,4.0,6.0,84,0.00,,OVC019,0.00,VWS V14.01,2013-02-26 13:12:00,
2013-02-26 07:17:00,45.5,41.0,29.45,WSW,238,4.0,6.0,84,0.00,,OVC019,0.00,VWS V14.01,2013-02-26 13:17:00,
2013-02-26 07:22:00,45.5,41.0,29.45,SSW,211,2.0,3.0,84,0.00,,OVC019,0.00,VWS V14.01,2013-02-26 13:22:00,
2013-02-26 07:27:00,45.4,40.9,29.45,WSW,238,2.0,3.0,84,0.00,,OVC019,0.00,VWS V14.01,2013-02-26 13:27:00,
2013-02-26 07:32:00,45.4,40.9,29.45,WSW,251,3.0,5.0,84,0.00,,OVC019,0.00,VWS V14.01,2013-02-26 13:32:00,
2013-02-26 07:37:00,45.4,40.9,29.45,SSW,192,8.0,8.0,84,0.00,,OVC019,0.00,VWS V14.01,2013-02-26 13:37:00,
2013-02-26 07:42:00,45.4,40.9,29.46,SW,224,9.0,9.0,84,0.00,,OVC019,0.00,VWS V14.01,2013-02-26 13:42:00,
2013-02-26 07:47:00,45.3,40.8,29.46,SSW,211,4.0,6.0,84,0.00,,OVC019,0.00,VWS V14.01,2013-02-26 13:47:00,
2013-02-26 07:52:00,45.3,40.8,29.47,WSW,248,5.0,7.0,84,0.00,,OVC019,0.00,VWS V14.01,2013-02-26 13:52:00,
2013-02-26 07:57:00,45.2,40.7,29.47,SSW,192,4.0,6.0,84,0.00,,OVC019,0.00,VWS V14.01,2013-02-26 13:57:00,
2013-02-26 08:02:00,45.2,40.7,29.47,WSW,250,6.0,7.0,84,0.00,,OVC019,0.00,VWS V14.01,2013-02-26 14:02:00,
2013-02-26 08:07:00,45.2,40.7,29.47,SW,215,9.0,9.0,84,0.00,,OVC019,0.00,VWS V14.01,2013-02-26 14:07:00,
2013-02-26 08:12:00,45.2,40.3,29.47,SW,223,7.0,7.0,83,0.00,,OVC019,0.00,VWS V14.01,2013-02-26 14:12:00,
2013-02-26 08:17:00,45.2,40.3,29.48,SW,219,5.0,9.0,83,0.00,,OVC019,0.00,VWS V14.01,2013-02-26 14:17:00,
2013-02-26 08:21:00,45.2,40.3,29.48,SW,229,6.0,8.0,83,0.00,,OVC019,0.00,VWS V14.01,2013-02-26 14:21:00,
2013-02-26 08:26:00,45.2,40.3,29.48,SSW,203,5.0,9.0,83,0.00,,OVC019,0.00,VWS V14.01,2013-02-26 14:26:00,
2013-02-26 08:32:00,45.1,40.2,29.48,South,189,10.0,16.0,83,0.00,,OVC019,0.00,VWS V14.01,2013-02-26 14:32:00,
2013-02-26 08:37:00,45.0,39.5,29.49,SSW,210,3.0,11.0,81,0.00,,OVC019,0.00,VWS V14.01,2013-02-26 14:37:00,
2013-02-26 08:42:00,44.9,39.4,29.49,SW,228,11.0,11.0,81,0.00,,OVC019,0.00,VWS V14.01,2013-02-26 14:42:00,
2013-02-26 08:47:00,44.9,39.4,29.49,NW,319,7.0,7.0,81,0.00,,OVC019,0.00,VWS V14.01,2013-02-26 14:47:00,
2013-02-26 08:52:00,44.9,39.4,29.49,SW,234,5.0,5.0,81,0.00,,OVC019,0.00,VWS V14.01,2013-02-26 14:52:00,
2013-02-26 08:57:00,44.9,39.4,29.49,SSW,209,7.0,9.0,81,0.00,,OVC019,0.00,VWS V14.01,2013-02-26 14:57:00,
2013-02-26 09:02:00,44.9,39.4,29.49,SW,218,10.0,11.0,81,0.00,,OVC019,0.00,VWS V14.01,2013-02-26 15:02:00,
2013-02-26 09:07:00,44.8,39.3,29.50,SW,235,6.0,15.0,81,0.00,,OVC019,0.00,VWS V14.01,2013-02-26 15:07:00,
2013-02-26 09:12:00,44.8,39.3,29.50,WSW,243,4.0,12.0,81,0.00,,OVC019,0.00,VWS V14.01,2013-02-26 15:12:00,
2013-02-26 09:16:00,44.7,39.2,29.50,SSW,213,11.0,11.0,81,0.00,,OVC019,0.00,VWS V14.01,2013-02-26 15:16:00,
2013-02-26 09:22:00,44.7,38.9,29.50,SW,223,6.0,9.0,80,0.00,,OVC019,0.00,VWS V14.01,2013-02-26 15:22:00,
2013-02-26 09:26:00,44.7,39.2,29.50,WSW,238,11.0,11.0,81,0.00,,OVC019,0.00,VWS V14.01,2013-02-26 15:26:00,
2013-02-26 09:31:00,44.6,38.8,29.50,SW,231,7.0,12.0,80,0.00,,OVC019,0.00,VWS V14.01,2013-02-26 15:31:00,
2013-02-26 09:36:00,44.6,39.1,29.50,WSW,249,12.0,12.0,81,0.00,,OVC019,0.00,VWS V14.01,2013-02-26 15:36:00,
2013-02-26 09:41:00,44.6,38.8,29.50,SW,218,9.0,9.0,80,0.00,,OVC019,0.00,VWS V14.01,2013-02-26 15:41:00,
2013-02-26 09:46:00,44.6,39.1,29.50,West,266,2.0,5.0,81,0.00,,OVC019,0.00,VWS V14.01,2013-02-26 15:46:00,
2013-02-26 09:51:00,44.7,39.2,29.51,SW,219,2.0,7.0,81,0.00,,OVC019,0.00,VWS V14.01,2013-02-26 15:51:00,
2013-02-26 09:56:00,45.1,39.3,29.51,WSW,243,11.0,12.0,80,0.00,,OVC019,0.00,VWS V14.01,2013-02-26 15:56:00,
2013-02-26 10:01:00,45.2,39.1,29.51,SSW,209,11.0,11.0,79,0.00,,OVC019,0.00,VWS V14.01,2013-02-26 16:01:00,
2013-02-26 10:06:00,45.1,39.0,29.51,SW,215,11.0,11.0,79,0.00,,OVC032,0.00,VWS V14.01,2013-02-26 16:06:00,
2013-02-26 10:11:00,45.1,39.0,29.51,SW,221,10.0,12.0,79,0.00,,OVC032,0.00,VWS V14.01,2013-02-26 16:11:00,
2013-02-26 10:16:00,45.0,38.9,29.51,SSW,213,7.0,7.0,79,0.00,,OVC032,0.00,VWS V14.01,2013-02-26 16:16:00,
2013-02-26 10:21:00,44.9,38.8,29.51,WNW,293,5.0,8.0,79,0.00,,OVC032,0.00,VWS V14.01,2013-02-26 16:21:00,
2013-02-26 10:26:00,44.8,39.0,29.52,SW,232,3.0,10.0,80,0.00,,OVC032,0.00,VWS V14.01,2013-02-26 16:26:00,
2013-02-26 10:31:00,44.8,39.0,29.52,SW,223,9.0,11.0,80,0.00,,OVC032,0.00,VWS V14.01,2013-02-26 16:31:00,
2013-02-26 10:36:00,44.7,38.9,29.52,SW,215,9.0,9.0,80,0.00,,OVC032,0.00,VWS V14.01,2013-02-26 16:36:00,
2013-02-26 10:41:00,44.6,38.8,29.52,SW,229,3.0,4.0,80,0.00,,OVC032,0.00,VWS V14.01,2013-02-26 16:41:00,
2013-02-26 10:46:00,44.7,39.2,29.52,WSW,238,12.0,12.0,81,0.00,,OVC032,0.00,VWS V14.01,2013-02-26 16:46:00,
2013-02-26 10:51:00,44.7,38.9,29.52,WSW,246,7.0,8.0,80,0.00,,OVC032,0.00,VWS V14.01,2013-02-26 16:51:00,
2013-02-26 10:56:00,44.8,39.0,29.52,SW,215,13.0,13.0,80,0.00,,OVC032,0.00,VWS V14.01,2013-02-26 16:56:00,
2013-02-26 11:01:00,44.7,38.9,29.52,West,263,3.0,16.0,80,0.00,,OVC032,0.00,VWS V14.01,2013-02-26 17:01:00,
2013-02-26 11:06:00,44.7,38.9,29.52,WSW,257,6.0,8.0,80,0.00,,OVC025,0.00,VWS V14.01,2013-02-26 17:06:00,
2013-02-26 11:11:00,44.7,38.9,29.52,WNW,296,6.0,6.0,80,0.00,,OVC025,0.00,VWS V14.01,2013-02-26 17:11:00,
2013-02-26 11:16:00,44.6,38.8,29.52,South,186,6.0,10.0,80,0.00,,OVC025,0.00,VWS V14.01,2013-02-26 17:16:00,
2013-02-26 11:21:00,44.7,38.9,29.51,WSW,247,1.0,7.0,80,0.00,,OVC025,0.00,VWS V14.01,2013-02-26 17:21:00,
2013-02-26 11:26:00,44.7,38.9,29.52,SSW,213,10.0,10.0,80,0.00,,OVC025,0.00,VWS V14.01,2013-02-26 17:26:00,
2013-02-26 11:31:00,44.5,38.7,29.52,WSW,242,4.0,8.0,80,0.00,,OVC025,0.00,VWS V14.01,2013-02-26 17:31:00,
2013-02-26 11:36:00,44.4,38.6,29.52,WSW,255,8.0,8.0,80,0.00,,OVC025,0.00,VWS V14.01,2013-02-26 17:36:00,
2013-02-26 11:41:00,44.2,38.4,29.53,SW,229,5.0,12.0,80,0.00,,OVC025,0.00,VWS V14.01,2013-02-26 17:41:00,
2013-02-26 11:46:00,44.1,38.7,29.53,SSW,192,7.0,9.0,81,0.00,,OVC025,0.00,VWS V14.01,2013-02-26 17:46:00,
2013-02-26 11:51:00,44.0,38.5,29.54,SW,232,6.0,13.0,81,0.00,,OVC025,0.00,VWS V14.01,2013-02-26 17:51:00,
2013-02-26 11:56:00,43.8,38.4,29.54,WSW,237,4.0,9.0,81,0.00,,OVC025,0.00,VWS V14.01,2013-02-26 17:56:00,
2013-02-26 12:02:00,43.6,38.5,29.55,West,261,9.0,11.0,82,0.00,,OVC025,0.00,VWS V14.01,2013-02-26 18:02:00,
2013-02-26 12:06:00,43.2,37.8,29.55,West,269,10.0,11.0,81,0.00,,,0.00,VWS V14.01,2013-02-26 18:06:00,
2013-02-26 12:12:00,42.9,37.8,29.55,SW,225,9.0,12.0,82,0.00,,,0.00,VWS V14.01,2013-02-26 18:12:00,
2013-02-26 12:16:00,42.6,37.8,29.55,SW,234,1.0,10.0,83,0.00,,,0.00,VWS V14.01,2013-02-26 18:16:00,
2013-02-26 12:21:00,42.5,38.0,29.55,SSW,200,4.0,9.0,84,0.00,,,0.00,VWS V14.01,2013-02-26 18:21:00,
2013-02-26 12:26:00,42.4,37.9,29.55,WNW,286,10.0,10.0,84,0.00,,,0.00,VWS V14.01,2013-02-26 18:26:00,
2013-02-26 12:32:00,42.4,37.9,29.55,SSW,192,6.0,10.0,84,0.00,,,0.00,VWS V14.01,2013-02-26 18:32:00,
2013-02-26 12:37:00,42.3,37.8,29.55,SW,232,5.0,13.0,84,0.00,,,0.00,VWS V14.01,2013-02-26 18:37:00,
2013-02-26 12:42:00,42.3,37.8,29.54,WSW,241,7.0,10.0,84,0.00,,,0.00,VWS V14.01,2013-02-26 18:42:00,
2013-02-26 12:47:00,42.3,37.8,29.55,West,261,9.0,9.0,84,0.00,,,0.00,VWS V14.01,2013-02-26 18:47:00,
2013-02-26 12:52:00,42.3,37.8,29.55,WSW,238,8.0,10.0,84,0.00,,,0.00,VWS V14.01,2013-02-26 18:52:00,
2013-02-26 12:57:00,42.3,37.8,29.55,West,281,2.0,11.0,84,0.00,,,0.00,VWS V14.01,2013-02-26 18:57:00,
2013-02-26 13:02:00,42.4,37.9,29.55,WSW,242,10.0,11.0,84,0.00,,,0.00,VWS V14.01,2013-02-26 19:02:00,
2013-02-26 13:07:00,42.4,37.6,29.55,SSW,211,4.0,4.0,83,0.00,,-RA,0.00,VWS V14.01,2013-02-26 19:07:00,
2013-02-26 13:12:00,42.4,37.6,29.55,WSW,257,8.0,8.0,83,0.00,,-RA,0.00,VWS V14.01,2013-02-26 19:12:00,
2013-02-26 13:17:00,42.4,37.9,29.55,West,263,3.0,14.0,84,0.00,,-RA,0.00,VWS V14.01,2013-02-26 19:17:00,
2013-02-26 13:22:00,42.4,37.9,29.55,WSW,252,2.0,5.0,84,0.00,,-RA,0.00,VWS V14.01,2013-02-26 19:22:00,
2013-02-26 13:27:00,42.4,37.9,29.55,SW,221,8.0,12.0,84,0.00,,-RA,0.00,VWS V14.01,2013-02-26 19:27:00,
2013-02-26 13:32:00,42.3,37.8,29.55,WSW,244,6.0,10.0,84,0.00,,-RA,0.00,VWS V14.01,2013-02-26 19:32:00,
2013-02-26 13:37:00,42.4,37.9,29.56,West,261,5.0,10.0,84,0.00,,-RA,0.00,VWS V14.01,2013-02-26 19:37:00,
2013-02-26 13:42:00,42.4,37.9,29.56,WSW,257,5.0,8.0,84,0.00,,-RA,0.00,VWS V14.01,2013-02-26 19:42:00,
2013-02-26 13:47:00,42.5,37.7,29.57,WNW,289,13.0,13.0,83,0.00,,-RA,0.00,VWS V14.01,2013-02-26 19:47:00,
2013-02-26 13:52:00,42.5,37.4,29.57,WNW,302,11.0,12.0,82,0.00,,-RA,0.00,VWS V14.01,2013-02-26 19:52:00,
2013-02-26 13:57:00,42.5,37.4,29.57,NW,304,6.0,8.0,82,0.00,,-RA,0.00,VWS V14.01,2013-02-26 19:57:00,
2013-02-26 14:02:00,42.6,37.2,29.57,WNW,302,4.0,14.0,81,0.00,,-RA,0.00,VWS V14.01,2013-02-26 20:02:00,
2013-02-26 14:07:00,42.7,37.0,29.58,WNW,298,14.0,22.0,80,0.00,,-RA,0.00,VWS V14.01,2013-02-26 20:07:00,
2013-02-26 14:12:00,42.7,36.7,29.58,WNW,288,6.0,11.0,79,0.00,,-RA,0.00,VWS V14.01,2013-02-26 20:12:00,
2013-02-26 14:17:00,42.8,36.8,29.58,NW,319,11.0,13.0,79,0.00,,-RA,0.00,VWS V14.01,2013-02-26 20:17:00,
2013-02-26 14:22:00,42.9,36.8,29.58,SW,223,6.0,10.0,79,0.00,,-RA,0.00,VWS V14.01,2013-02-26 20:22:00,
2013-02-26 14:27:00,43.0,36.6,29.58,SSW,195,13.0,13.0,78,0.00,,-RA,0.00,VWS V14.01,2013-02-26 20:27:00,
2013-02-26 14:32:00,43.0,36.6,29.58,WSW,238,8.0,8.0,78,0.00,,-RA,0.00,VWS V14.01,2013-02-26 20:32:00,
2013-02-26 14:37:00,43.3,36.9,29.58,West,272,11.0,16.0,78,0.00,,-RA,0.00,VWS V14.01,2013-02-26 20:37:00,
2013-02-26 14:42:00,44.4,37.7,29.58,NNW,340,6.0,12.0,77,0.00,,-RA,0.00,VWS V14.01,2013-02-26 20:42:00,
2013-02-26 14:47:00,45.4,38.0,29.58,NW,311,8.0,10.0,75,0.00,,-RA,0.00,VWS V14.01,2013-02-26 20:47:00,
2013-02-26 14:52:00,45.2,37.4,29.58,WSW,244,6.0,18.0,74,0.00,,-RA,0.00,VWS V14.01,2013-02-26 20:52:00,
2013-02-26 14:57:00,44.8,36.7,29.58,West,273,8.0,9.0,73,0.00,,-RA,0.00,VWS V14.01,2013-02-26 20:57:00,
2013-02-26 15:02:00,44.5,36.7,29.58,West,281,5.0,8.0,74,0.00,,-RA,0.00,VWS V14.01,2013-02-26 21:02:00,
2013-02-26 15:07:00,44.5,37.4,29.58,WSW,243,5.0,7.0,76,0.00,,OVC035,0.00,VWS V14.01,2013-02-26 21:07:00,
2013-02-26 15:12:00,44.6,37.2,29.59,WNW,290,5.0,10.0,75,0.00,,OVC035,0.00,VWS V14.01,2013-02-26 21:12:00,
2013-02-26 15:17:00,44.6,36.8,29.59,WNW,292,6.0,14.0,74,0.00,,OVC035,0.00,VWS V14.01,2013-02-26 21:17:00,
2013-02-26 15:22:00,44.4,36.7,29.59,SW,234,5.0,12.0,74,0.00,,OVC035,0.00,VWS V14.01,2013-02-26 21:22:00,
2013-02-26 15:27:00,44.3,36.5,29.59,WSW,250,4.0,5.0,74,0.00,,OVC035,0.00,VWS V14.01,2013-02-26 21:27:00,
2013-02-26 15:32:00,44.2,36.5,29.60,WNW,288,5.0,9.0,74,0.00,,OVC035,0.00,VWS V14.01,2013-02-26 21:32:00,
2013-02-26 15:37:00,44.2,36.5,29.60,SW,231,5.0,5.0,74,0.00,,OVC035,0.00,VWS V14.01,2013-02-26 21:37:00,
2013-02-26 15:42:00,44.2,36.8,29.61,West,275,12.0,12.0,75,0.00,,OVC035,0.00,VWS V14.01,2013-02-26 21:42:00,
2013-02-26 15:47:00,44.2,36.1,29.61,WNW,301,11.0,17.0,73,0.00,,OVC035,0.00,VWS V14.01,2013-02-26 21:47:00,
2013-02-26 15:52:00,44.2,36.1,29.61,WNW,284,3.0,8.0,73,0.00,,OVC035,0.00,VWS V14.01,2013-02-26 21:52:00,
2013-02-26 15:57:00,44.2,36.1,29.61,West,261,10.0,10.0,73,0.00,,OVC035,0.00,VWS V14.01,2013-02-26 21:57:00,
2013-02-26 16:02:00,44.2,35.8,29.61,WSW,254,8.0,8.0,72,0.00,,OVC035,0.00,VWS V14.01,2013-02-26 22:02:00,
2013-02-26 16:07:00,44.2,35.8,29.62,NW,306,3.0,13.0,72,0.00,,OVC035,0.00,VWS V14.01,2013-02-26 22:07:00,
2013-02-26 16:12:00,44.3,35.9,29.61,West,271,9.0,10.0,72,0.00,,OVC035,0.00,VWS V14.01,2013-02-26 22:12:00,
2013-02-26 16:17:00,44.3,35.9,29.62,West,271,7.0,12.0,72,0.00,,OVC035,0.00,VWS V14.01,2013-02-26 22:17:00,
2013-02-26 16:22:00,44.3,35.9,29.62,WSW,248,12.0,18.0,72,0.00,,OVC035,0.00,VWS V14.01,2013-02-26 22:22:00,
2013-02-26 16:27:00,44.3,36.2,29.62,West,279,5.0,9.0,73,0.00,,OVC035,0.00,VWS V14.01,2013-02-26 22:27:00,
2013-02-26 16:32:00,44.2,35.8,29.62,West,259,4.0,9.0,72,0.00,,OVC035,0.00,VWS V14.01,2013-02-26 22:32:00,
2013-02-26 16:37:00,44.1,36.0,29.63,WSW,251,11.0,17.0,73,0.00,,OVC035,0.00,VWS V14.01,2013-02-26 22:37:00,
2013-02-26 16:42:00,43.9,35.8,29.63,WSW,238,8.0,10.0,73,0.00,,OVC035,0.00,VWS V14.01,2013-02-26 22:42:00,
2013-02-26 16:47:00,43.8,35.7,29.63,WNW,287,5.0,12.0,73,0.00,,OVC035,0.00,VWS V14.01,2013-02-26 22:47:00,
2013-02-26 16:52:00,43.7,36.0,29.63,WSW,256,7.0,14.0,74,0.00,,OVC035,0.00,VWS V14.01,2013-02-26 22:52:00,
2013-02-26 16:57:00,43.6,35.9,29.64,West,277,14.0,14.0,74,0.00,,OVC035,0.00,VWS V14.01,2013-02-26 22:57:00,
2013-02-26 17:02:00,43.5,35.8,29.64,WNW,286,8.0,8.0,74,0.00,,OVC035,0.00,VWS V14.01,2013-02-26 23:02:00,
2013-02-26 17:07:00,43.4,35.7,29.64,West,259,9.0,12.0,74,0.00,,OVC035,0.00,VWS V14.01,2013-02-26 23:07:00,
2013-02-26 17:12:00,43.3,35.6,29.65,West,275,18.0,18.0,74,0.00,,OVC035,0.00,VWS V14.01,2013-02-26 23:12:00,
2013-02-26 17:17:00,43.3,35.2,29.65,West,267,7.0,12.0,73,0.00,,OVC035,0.00,VWS V14.01,2013-02-26 23:17:00,
2013-02-26 17:22:00,43.3,35.6,29.65,WNW,290,11.0,11.0,74,0.00,,OVC035,0.00,VWS V14.01,2013-02-26 23:22:00,
2013-02-26 17:27:00,43.2,35.1,29.66,WNW,288,10.0,12.0,73,0.00,,OVC035,0.00,VWS V14.01,2013-02-26 23:27:00,
2013-02-26 17:32:00,43.2,35.1,29.66,WNW,291,8.0,8.0,73,0.00,,OVC035,0.00,VWS V14.01,2013-02-26 23:32:00,
2013-02-26 17:37:00,43.1,35.4,29.66,NNW,329,7.0,10.0,74,0.00,,OVC035,0.00,VWS V14.01,2013-02-26 23:37:00,
2013-02-26 17:42:00,43.0,35.3,29.67,West,276,13.0,13.0,74,0.00,,OVC035,0.00,VWS V14.01,2013-02-26 23:42:00,
2013-02-26 17:47:00,42.9,35.2,29.67,WSW,245,4.0,10.0,74,0.00,,OVC035,0.00,VWS V14.01,2013-02-26 23:47:00,
2013-02-26 17:52:00,42.9,35.2,29.68,West,281,4.0,7.0,74,0.00,,OVC035,0.00,VWS V14.01,2013-02-26 23:52:00,
2013-02-26 17:57:00,42.8,35.1,29.68,West,275,7.0,12.0,74,0.00,,OVC035,0.00,VWS V14.01,2013-02-26 23:57:00,
2013-02-26 18:02:00,42.7,35.3,29.68,WSW,254,5.0,12.0,75,0.00,,OVC035,0.00,VWS V14.01,2013-02-27 00:02:00,
2013-02-26 18:07:00,42.7,35.3,29.69,WSW,242,7.0,17.0,75,0.00,,OVC035,0.00,VWS V14.01,2013-02-27 00:07:00,
2013-02-26 18:12:00,42.6,35.2,29.70,WNW,302,5.0,7.0,75,0.00,,OVC035,0.00,VWS V14.01,2013-02-27 00:12:00,
2013-02-26 18:17:00,42.5,35.2,29.70,West,265,10.0,15.0,75,0.00,,OVC035,0.00,VWS V14.01,2013-02-27 00:17:00,
2013-02-26 18:22:00,42.5,35.2,29.70,NW,316,7.0,14.0,75,0.00,,OVC035,0.00,VWS V14.01,2013-02-27 00:22:00,
2013-02-26 18:27:00,42.5,35.2,29.71,SW,229,7.0,13.0,75,0.00,,OVC035,0.00,VWS V14.01,2013-02-27 00:27:00,
2013-02-26 18:32:00,42.4,35.0,29.71,West,272,9.0,11.0,75,0.00,,OVC035,0.00,VWS V14.01,2013-02-27 00:32:00,
2013-02-26 18:37:00,42.4,35.4,29.71,West,277,4.0,12.0,76,0.00,,OVC035,0.00,VWS V14.01,2013-02-27 00:37:00,
2013-02-26 18:42:00,42.4,35.4,29.72,WNW,298,6.0,10.0,76,0.00,,OVC035,0.00,VWS V14.01,2013-02-27 00:42:00,
2013-02-26 18:47:00,42.3,35.3,29.72,West,267,5.0,13.0,76,0.00,,OVC035,0.00,VWS V14.01,2013-02-27 00:47:00,
2013-02-26 18:52:00,42.3,35.3,29.72,West,273,12.0,13.0,76,0.00,,OVC035,0.00,VWS V14.01,2013-02-27 00:52:00,
2013-02-26 18:57:00,42.3,35.3,29.73,SW,219,5.0,14.0,76,0.00,,OVC035,0.00,VWS V14.01,2013-02-27 00:57:00,
2013-02-26 19:02:00,42.3,35.3,29.72,NW,312,14.0,14.0,76,0.00,,OVC035,0.00,VWS V14.01,2013-02-27 01:02:00,
2013-02-26 19:07:00,42.2,35.2,29.73,West,267,9.0,11.0,76,0.00,,OVC033,0.00,VWS V14.01,2013-02-27 01:07:00,
2013-02-26 19:12:00,42.2,35.2,29.73,West,280,7.0,11.0,76,0.00,,OVC033,0.00,VWS V14.01,2013-02-27 01:12:00,
2013-02-26 19:17:00,42.2,35.2,29.73,West,269,6.0,12.0,76,0.00,,OVC033,0.00,VWS V14.01,2013-02-27 01:17:00,
2013-02-26 19:22:00,42.2,35.2,29.73,West,273,4.0,11.0,76,0.00,,OVC033,0.00,VWS V14.01,2013-02-27 01:22:00,
2013-02-26 19:27:00,42.1,35.1,29.74,West,271,2.0,9.0,76,0.00,,OVC033,0.00,VWS V14.01,2013-02-27 01:27:00,
2013-02-26 19:32:00,42.1,35.1,29.74,WNW,285,7.0,9.0,76,0.00,,OVC033,0.00,VWS V14.01,2013-02-27 01:32:00,
2013-02-26 19:37:00,42.0,35.0,29.74,West,279,8.0,12.0,76,0.00,,OVC033,0.00,VWS V14.01,2013-02-27 01:37:00,
2013-02-26 19:42:00,42.0,35.0,29.75,West,281,17.0,17.0,76,0.00,,OVC033,0.00,VWS V14.01,2013-02-27 01:42:00,
2013-02-26 19:47:00,42.0,35.0,29.75,NW,308,8.0,8.0,76,0.00,,OVC033,0.00,VWS V14.01,2013-02-27 01:47:00,
2013-02-26 19:52:00,42.0,35.0,29.75,West,277,8.0,12.0,76,0.00,,OVC033,0.00,VWS V14.01,2013-02-27 01:52:00,
2013-02-26 19:57:00,41.9,34.9,29.75,WSW,251,6.0,12.0,76,0.00,,OVC033,0.00,VWS V14.01,2013-02-27 01:57:00,
2013-02-26 20:02:00,42.0,35.3,29.76,WNW,289,5.0,9.0,77,0.00,,OVC033,0.00,VWS V14.01,2013-02-27 02:02:00,
2013-02-26 20:07:00,41.9,35.2,29.76,WNW,302,10.0,10.0,77,0.00,,OVC042,0.00,VWS V14.01,2013-02-27 02:07:00,
2013-02-26 20:12:00,41.9,35.2,29.76,WSW,253,9.0,9.0,77,0.00,,OVC042,0.00,VWS V14.01,2013-02-27 02:12:00,
2013-02-26 20:17:00,41.8,35.1,29.77,NW,307,11.0,14.0,77,0.00,,OVC042,0.00,VWS V14.01,2013-02-27 02:17:00,
2013-02-26 20:22:00,41.8,35.1,29.77,West,279,16.0,16.0,77,0.00,,OVC042,0.00,VWS V14.01,2013-02-27 02:22:00,
2013-02-26 20:27:00,41.8,35.1,29.77,West,259,5.0,12.0,77,0.00,,OVC042,0.00,VWS V14.01,2013-02-27 02:27:00,
2013-02-26 20:32:00,41.8,35.1,29.77,West,280,18.0,18.0,77,0.00,,OVC042,0.00,VWS V14.01,2013-02-27 02:32:00,
2013-02-26 20:37:00,41.8,35.1,29.78,WNW,289,5.0,16.0,77,0.00,,OVC042,0.00,VWS V14.01,2013-02-27 02:37:00,
2013-02-26 20:42:00,41.8,35.1,29.78,West,276,7.0,8.0,77,0.00,,OVC042,0.00,VWS V14.01,2013-02-27 02:42:00,
2013-02-26 20:47:00,41.7,35.0,29.79,WNW,300,10.0,14.0,77,0.00,,OVC042,0.00,VWS V14.01,2013-02-27 02:47:00,
2013-02-26 20:52:00,41.7,35.0,29.78,West,272,5.0,8.0,77,0.00,,OVC042,0.00,VWS V14.01,2013-02-27 02:52:00,
2013-02-26 20:57:00,41.7,35.0,29.78,WNW,289,6.0,10.0,77,0.00,,OVC042,0.00,VWS V14.01,2013-02-27 02:57:00,
2013-02-26 21:02:00,41.7,35.0,29.79,WNW,291,11.0,13.0,77,0.00,,OVC042,0.00,VWS V14.01,2013-02-27 03:02:00,
2013-02-26 21:07:00,41.6,34.9,29.79,West,266,11.0,12.0,77,0.00,,OVC024,0.00,VWS V14.01,2013-02-27 03:07:00,
2013-02-26 21:12:00,41.6,34.9,29.79,West,276,5.0,6.0,77,0.00,,OVC024,0.00,VWS V14.01,2013-02-27 03:12:00,
2013-02-26 21:17:00,41.6,34.9,29.79,West,269,1.0,11.0,77,0.00,,OVC024,0.00,VWS V14.01,2013-02-27 03:17:00,
2013-02-26 21:22:00,41.6,34.9,29.80,NW,311,9.0,10.0,77,0.00,,OVC024,0.00,VWS V14.01,2013-02-27 03:22:00,
2013-02-26 21:27:00,41.6,34.9,29.80,West,279,6.0,9.0,77,0.00,,OVC024,0.00,VWS V14.01,2013-02-27 03:27:00,
2013-02-26 21:32:00,41.6,34.9,29.80,West,266,10.0,12.0,77,0.00,,OVC024,0.00,VWS V14.01,2013-02-27 03:32:00,
2013-02-26 21:37:00,41.6,34.9,29.80,West,276,6.0,15.0,77,0.00,,OVC024,0.00,VWS V14.01,2013-02-27 03:37:00,
2013-02-26 21:42:00,41.5,34.8,29.80,West,265,6.0,8.0,77,0.00,,OVC024,0.00,VWS V14.01,2013-02-27 03:42:00,
2013-02-26 21:47:00,41.5,34.8,29.80,West,279,8.0,9.0,77,0.00,,OVC024,0.00,VWS V14.01,2013-02-27 03:47:00,
2013-02-26 21:52:00,41.5,34.8,29.80,West,275,6.0,11.0,77,0.00,,OVC024,0.00,VWS V14.01,2013-02-27 03:52:00,
2013-02-26 21:57:00,41.5,34.8,29.80,West,269,7.0,10.0,77,0.00,,OVC024,0.00,VWS V14.01,2013-02-27 03:57:00,
2013-02-26 22:02:00,41.5,35.2,29.81,WSW,252,0.0,8.0,78,0.00,,OVC024,0.00,VWS V14.01,2013-02-27 04:02:00,
2013-02-26 22:07:00,41.5,35.2,29.81,SW,217,3.0,9.0,78,0.00,,OVC030,0.00,VWS V14.01,2013-02-27 04:07:00,
2013-02-26 22:12:00,41.4,35.1,29.81,WNW,284,6.0,8.0,78,0.00,,OVC030,0.00,VWS V14.01,2013-02-27 04:12:00,
2013-02-26 22:17:00,41.4,35.1,29.81,WNW,284,8.0,8.0,78,0.00,,OVC030,0.00,VWS V14.01,2013-02-27 04:17:00,
2013-02-26 22:22:00,41.5,35.2,29.82,NW,310,2.0,9.0,78,0.00,,OVC030,0.00,VWS V14.01,2013-02-27 04:22:00,
2013-02-26 22:27:00,41.5,34.8,29.81,WNW,299,9.0,9.0,77,0.00,,OVC030,0.00,VWS V14.01,2013-02-27 04:27:00,
2013-02-26 22:32:00,41.5,34.8,29.82,SSE,152,5.0,12.0,77,0.00,,OVC030,0.00,VWS V14.01,2013-02-27 04:32:00,
2013-02-26 22:37:00,41.5,34.8,29.82,West,269,3.0,8.0,77,0.00,,OVC030,0.00,VWS V14.01,2013-02-27 04:37:00,
2013-02-26 22:42:00,41.5,34.8,29.82,West,265,5.0,8.0,77,0.00,,OVC030,0.00,VWS V14.01,2013-02-27 04:42:00,
2013-02-26 22:47:00,41.5,35.2,29.82,West,261,4.0,7.0,78,0.00,,OVC030,0.00,VWS V14.01,2013-02-27 04:47:00,
2013-02-26 22:52:00,41.4,35.1,29.82,West,272,7.0,11.0,78,0.00,,OVC030,0.00,VWS V14.01,2013-02-27 04:52:00,
2013-02-26 22:57:00,41.4,35.1,29.82,West,276,10.0,10.0,78,0.00,,OVC030,0.00,VWS V14.01,2013-02-27 04:57:00,
2013-02-26 23:00:00,41.4,34.7,29.82,West,279,9.0,14.0,77,0.00,,OVC030,0.00,VWS V14.01,2013-02-27 05:00:00,
2013-02-26 23:05:00,41.4,35.1,29.83,NNW,327,3.0,9.0,78,0.00,,OVC029,0.00,VWS V14.01,2013-02-27 05:05:00,
2013-02-26 23:10:00,41.4,35.1,29.83,West,273,2.0,11.0,78,0.00,,OVC029,0.00,VWS V14.01,2013-02-27 05:10:00,
2013-02-26 23:15:00,41.4,35.1,29.83,West,281,3.0,10.0,78,0.00,,OVC029,0.00,VWS V14.01,2013-02-27 05:15:00,
2013-02-26 23:20:00,41.4,35.1,29.83,West,280,2.0,13.0,78,0.00,,OVC029,0.00,VWS V14.01,2013-02-27 05:20:00,
2013-02-26 23:25:00,41.4,35.1,29.83,WNW,282,3.0,15.0,78,0.00,,OVC029,0.00,VWS V14.01,2013-02-27 05:25:00,
2013-02-26 23:30:00,41.3,35.0,29.83,WNW,289,4.0,12.0,78,0.00,,OVC029,0.00,VWS V14.01,2013-02-27 05:30:00,
2013-02-26 23:35:00,41.3,35.0,29.83,WNW,303,4.0,10.0,78,0.00,,OVC029,0.00,VWS V14.01,2013-02-27 05:35:00,
2013-02-26 23:40:00,41.3,35.0,29.84,West,261,2.0,10.0,78,0.00,,OVC029,0.00,VWS V14.01,2013-02-27 05:40:00,
2013-02-26 23:45:00,41.3,35.3,29.84,WNW,292,3.0,7.0,79,0.00,,OVC029,0.00,VWS V14.01,2013-02-27 05:45:00,
2013-02-26 23:50:00,41.2,35.2,29.84,WNW,292,4.0,7.0,79,0.00,,OVC029,0.00,VWS V14.01,2013-02-27 05:50:00,
2013-02-26 23:55:00,41.2,35.2,29.84,WNW,296,7.0,7.0,79,0.00,,OVC029,0.00,VWS V14.01,2013-02-27 05:55:00,